< < Back
Terminal Aerodrome Forecast


Current Version              Previous Versions:   1  2  3  4  5  6  7  8  9  

Terminal Aerodrome Forecast

316
FTUS44 KOHX 240958 AAA
TAFBNA
TAF AMD
KBNA 240958Z 2410/2506 00000KT P6SM FEW150 SCT250
      TEMPO 2410/2413 4SM BR
     FM241330 22007KT P6SM SCT040 SCT100 BKN250
     FM250000 VRB02KT P6SM BKN250=



Latest METAR

250
SAUS70 KWBC 241900
MTRBNA
METAR KBNA 241853Z 20007KT 10SM SCT040 BKN070 BKN200 OVC250 33/22 A3018
RMK AO2 SLP212 T03280217


USA.gov is the U.S. government's official web portal to all federal, state and local government web resources and services.